Location: Alfortville
(48.8058°N, 2.4204°E)
Time: 14:03:23
(UTC+00:00)

USA 229 DEB - Pass Details

Date: 24 October 2021
Orbit: 944 x 1268 km, 63.4° (Epoch: 25 November)

Event Time Altitude Azimuth Distance (km) Brightness Sun altitude
Rises 19:14:38 0° 227° (SW) 3,641 7.0 -25.4°
Reaches altitude 10° 19:17:08 10° 229° (SW) 2,723 6.3 -25.8°
Maximum altitude 19:23:31 74° 315° (NW) 1,067 3.7 -26.9°
Enters shadow 19:26:54 32° 34° (NNE) 1,731 4.6 -27.4°
